Regional Weather Roundup
Issued by NWS

Home | Current Version | Previous Version | Graphics & Text | Print | Product List | Glossary Off
Versions: 1 2 3 4 5 6 7 8 9 10 11 12 13 14 15 16 17 18 19 20 21 22 23 24 25 26 27 28 29 30 31 32 33 34 35 36 37 38 39 40 41 42 43 44 45 46 47 48 49 50

000
ASUS43 KDMX 280104
RWRIA

WEATHER ROUNDUP FOR IOWA
NATIONAL WEATHER SERVICE DES MOINES IA
  ISSUED BY NWS QUAD CITIES IA IL
700 PM CST TUE JAN 27 2015

NOTE: "FAIR" INDICATES FEW OR NO CLOUDS BELOW 12,000 FEET WITH NO
SIGNIFICANT WEATHER AND/OR OBSTRUCTIONS TO VISIBILITY.

* - THESE STATIONS ARE NOT NWS STATIONS...THUS NOT UNDER NWS
QUALITY CONTROL.  THEY ALSO DO NOT REPORT WEATHER SUCH
AS PRECIPITATION OR FOG.

IAZ001>003-012>014-020>022-031>034-043>046-280200-
   NORTHWEST IOWA

CITY           SKY/WX    TMP DP  RH WIND       PRES   REMARKS
CARROLL *      CLEAR     36  32  87 SE9       30.08S WCI  29
CHEROKEE *     CLEAR     36  34  91 SE7       30.06R WCI  30
DENNISON *     CLEAR     37  34  87 SE7       30.05R WCI  32
LE MARS *      CLEAR     37  34  87 VRB5      30.03S WCI  34
ORANGE CITY *  CLEAR     37  34  87 SE7       30.02S WCI  32
SHELDON *      CLEAR     36  36 100 SE12      30.02S WCI  27
SIOUX CITY     CLEAR     39  33  79 SE10      30.02S WCI  32
SPENCER        CLEAR     36  32  85 SE13      30.06S WCI  27
STORM LAKE *   CLEAR     36  32  87 SE12      30.06S WCI  27
$$

IAZ055>058-069>071-079>083-090>094-280200-
   SOUTHWEST IOWA

CITY           SKY/WX    TMP DP  RH WIND       PRES   REMARKS
ATLANTIC *     PTCLDY    41  30  65 SE6       30.08R WCI  37
AUDUBON *      CLEAR     36  30  80 CALM      30.09R
CLARINDA *     CLEAR     43  30  61 SE6       30.10S WCI  39
COUNCIL BLFS * CLEAR     41  30  65 SE8       30.04S WCI  36
CRESTON *      CLEAR     34  28  80 E7        30.11R WCI  28
HARLAN *       CLEAR     37  34  87 SE6       30.10S WCI  33
LAMONI         CLEAR     40  29  64 E5        30.11S WCI  37
RED OAK *      CLEAR     41  28  60 SE5       30.08R WCI  38
SHENANDOAH *   CLEAR     41  30  65 SE5       30.08S WCI  38
$$

IAZ047>049-059>061-072>074-084-280200-
   CENTRAL IOWA

CITY           SKY/WX    TMP DP  RH WIND       PRES   REMARKS
AMES           CLEAR     32  27  81 SE12      30.14S WCI  23
ANKENY *       CLEAR     34  30  86 SE9       30.15S WCI  26
BOONE *        CLEAR     32  32 100 SE14      30.11S WCI  22
CHARITON *     CLEAR     36  30  80 E12       30.14S WCI  27
DES MOINES     CLEAR     36  29  75 SE10      30.15S WCI  28
GRINNELL *     CLOUDY    32  28  86 SE8       30.18S WCI  24
KNOXVILLE *    PTCLDY    32  28  86 SE9       30.15S WCI  24
MARSHALLTOWN   CLOUDY    31  27  85 SE13      30.16S WCI  21
NEWTON *       CLEAR     30  28  93 E10       30.16F WCI  21
PELLA *        CLEAR     32  28  86 E7        30.18S WCI  26
PERRY *          N/A     35  32  90 E13       30.11S WCI  26
$$

IAZ004>006-015-016-023>025-035-036-280200-
   NORTH CENTRAL IOWA

CITY           SKY/WX    TMP DP  RH WIND       PRES   REMARKS
ALGONA *       CLEAR     34  32  93 SE13G18   30.09S WCI  25
CLARION *      CLEAR     32  32 100 SE16      30.11F WCI  21
ESTHERVILLE    CLEAR     33  31  92 SE15      30.05F WCI  23
FORT DODGE *   CLEAR     34  28  80 SE9       30.11S WCI  26
MASON CITY     CLOUDY    32  28  85 SE13      30.14S WCI  22
FOREST CITY *  CLOUDY    32  30  93 SE13      30.12S WCI  22
WEBSTER CITY * CLEAR     32  32 100 SE13      30.10S WCI  22
IOWA FALLS *   CLOUDY    32  29  90 SE10      30.15S WCI  24
$$

IAZ007>011-017>019-026>030-037>042-050>054-066-280200-
   NORTHEAST IOWA

CITY           SKY/WX    TMP DP  RH WIND       PRES   REMARKS
CEDAR RAPIDS   CLOUDY    29  25  85 E9        30.19R WCI  20
CHARLES CITY * CLOUDY    30  28  93 SE10      30.17R WCI  21
CLINTON *      CLOUDY    27  21  80 CALM      30.26S
DECORAH *      CLOUDY    28  23  80 SE7       30.17F WCI  21
DUBUQUE        CLOUDY    25  21  85 S8        30.20S WCI  16
MONTICELLO *   CLOUDY    28  25  86 SE6       30.21S WCI  22
OELWEIN *      CLOUDY    30  25  80 SE8       30.19R WCI  23
WATERLOO       CLOUDY    30  25  81 SE9       30.17F WCI  22
$$

IAZ064-065-067-068-078-280200-
   EAST CENTRAL IOWA

CITY           SKY/WX    TMP DP  RH WIND       PRES   REMARKS
DAVENPORT      CLOUDY    26  20  77 E3        30.24R
IOWA CITY      CLOUDY    29  24  82 SE9       30.24R WCI  20
MT. PLEASANT * CLOUDY    30  26  85 E7        30.22S WCI  23
MUSCATINE *    CLOUDY    30  25  80 SE6       30.24S WCI  24
QUAD CITIES    CLOUDY    27  22  81 SE6       30.24S WCI  20
$$

IAZ062-063-075>077-085>089-095>099-280200-
   SOUTHEAST IOWA

CITY           SKY/WX    TMP DP  RH WIND       PRES   REMARKS
BURLINGTON     CLOUDY    30  26  85 E6        30.22R WCI  24
FAIRFIELD *    CLOUDY    30  27  86 SE9       30.20F WCI  22
FORT MADISON * CLOUDY    30  27  86 E7        30.23R WCI  23
KEOKUK *       CLOUDY    32  28  86 E7        30.21S WCI  26
OSKALOOSA *    FAIR      31  28  88 E10       30.19S WCI  22
OTTUMWA        CLEAR     31  27  85 E10       30.18S WCI  22
WASHINGTON *   CLOUDY    30  30 100 SE8       30.22R WCI  23
$$

ABBREVIATIONS USED IN REMARKS
   TC - TEMPERATURES IN CELSIUS
  WCI - WIND CHILL INDEX
   HX - HEAT INDEX
  VSB - VISIBILITY
$$



USA.gov is the U.S. government's official web portal to all federal, state and local government web resources and services.